Location: Columbia, SC
(34.0000°N, 81.0300°W)
Time: 00:27:32
(UTC-04:00)

Tiangong 1 - Visible Passes

Search period start: 25 July 2017 00:00
Search period end: 04 August 2017 00:00
Orbit: 315 x 342 km, 42.8° (Epoch: 24 July)

Date Brightness Start Highest point End Pass type
(mag) Time Alt. Az. Time Alt. Az. Time Alt. Az.
25 Jul 2.2 05:11:09 23° S 05:11:50 26° SE 05:14:13 10° E visible
26 Jul 0.6 05:28:22 25° WSW 05:29:46 87° SE 05:32:33 10° ENE visible
27 Jul 3.9 04:14:25 12° E 04:14:25 12° E 04:14:43 10° E visible
27 Jul 1.9 05:45:29 11° W 05:47:49 34° NNW 05:50:25 10° NE visible
28 Jul 2.7 04:31:27 29° ENE 04:31:27 29° ENE 04:33:00 10° ENE visible
28 Jul 3.0 06:03:53 10° WNW 06:05:58 19° NNW 06:08:05 10° NE visible
29 Jul 2.0 04:48:25 35° N 04:48:25 35° N 04:50:48 10° NE visible
30 Jul 2.9 05:05:18 17° NW 05:06:15 20° NNW 05:08:22 10° NE visible
31 Jul 3.5 05:22:44 10° NW 05:24:21 14° N 05:25:58 10° NNE visible
01 Aug 4.1 04:07:55 13° NNE 04:07:55 13° NNE 04:08:29 10° NE visible
01 Aug 3.6 05:41:00 10° NNW 05:42:28 13° N 05:43:55 10° NE visible
02 Aug 3.7 04:24:44 14° N 04:24:44 14° N 04:25:58 10° NNE visible
02 Aug 3.6 05:58:43 10° NNW 06:00:30 16° N 06:02:19 10° NE visible
03 Aug 3.6 04:41:34 12° NNW 04:42:21 13° N 04:43:46 10° NNE visible
